TimeEDT,TemperatureF,Dew PointF,Humidity,Sea Level PressureIn,VisibilityMPH,Wind Direction,Wind SpeedMPH,Gust SpeedMPH,PrecipitationIn,Events,Conditions,WindDirDegrees,DateUTC
12:53 AM,70.0,62.1,76,29.89,10.0,WSW,6.9,-,0.00,Rain,Light Rain,250,2013-05-24 04:53:00
1:53 AM,71.1,60.1,68,29.89,10.0,WNW,6.9,-,0.00,,Clear,290,2013-05-24 05:53:00
2:53 AM,71.1,57.9,63,29.89,10.0,WNW,8.1,-,N/A,,Clear,300,2013-05-24 06:53:00
3:53 AM,69.1,55.9,63,29.89,10.0,WNW,9.2,-,N/A,,Clear,300,2013-05-24 07:53:00
4:53 AM,68.0,55.0,63,29.90,10.0,NW,5.8,-,N/A,,Clear,310,2013-05-24 08:53:00
5:53 AM,66.0,55.0,68,29.91,10.0,NW,5.8,-,N/A,,Clear,320,2013-05-24 09:53:00
6:53 AM,64.9,55.0,70,29.92,10.0,NW,5.8,-,N/A,,Clear,320,2013-05-24 10:53:00
7:53 AM,68.0,55.9,65,29.94,10.0,NW,8.1,-,N/A,,Clear,320,2013-05-24 11:53:00
8:53 AM,72.0,55.9,57,29.96,10.0,WNW,6.9,-,N/A,,Clear,300,2013-05-24 12:53:00
9:53 AM,75.0,57.0,53,29.98,10.0,NW,9.2,-,N/A,,Clear,310,2013-05-24 13:53:00
10:53 AM,75.9,55.0,48,29.99,10.0,NW,13.8,19.6,N/A,,Clear,320,2013-05-24 14:53:00
11:53 AM,78.1,53.1,42,30.00,10.0,NW,15.0,21.9,N/A,,Partly Cloudy,310,2013-05-24 15:53:00
12:53 PM,80.1,55.0,42,30.00,10.0,NW,12.7,20.7,N/A,,Clear,320,2013-05-24 16:53:00
1:53 PM,82.0,55.0,39,30.01,10.0,North,12.7,20.7,N/A,,Scattered Clouds,10,2013-05-24 17:53:00
2:53 PM,81.0,50.0,34,30.02,10.0,North,13.8,24.2,N/A,,Partly Cloudy,350,2013-05-24 18:53:00
3:53 PM,81.0,46.9,30,30.03,10.0,NNW,13.8,23.0,N/A,,Clear,340,2013-05-24 19:53:00
4:53 PM,81.0,43.0,26,30.04,10.0,North,17.3,27.6,N/A,,Clear,360,2013-05-24 20:53:00
5:53 PM,81.0,41.0,24,30.05,10.0,North,9.2,18.4,N/A,,Clear,10,2013-05-24 21:53:00
6:53 PM,78.1,37.9,24,30.07,10.0,NNE,11.5,-,N/A,,Clear,30,2013-05-24 22:53:00
7:53 PM,75.0,37.0,25,30.09,10.0,NNE,8.1,-,N/A,,Clear,20,2013-05-24 23:53:00
8:53 PM,70.0,37.0,30,30.12,10.0,NE,6.9,-,N/A,,Clear,40,2013-05-25 00:53:00
9:53 PM,66.0,39.0,37,30.14,10.0,NE,3.5,-,N/A,,Clear,40,2013-05-25 01:53:00
10:53 PM,59.0,48.0,67,30.18,10.0,Calm,Calm,-,N/A,,Clear,0,2013-05-25 02:53:00
11:53 PM,57.0,46.9,69,30.18,10.0,Calm,Calm,-,N/A,,Clear,0,2013-05-25 03:53:00